Tracking 32139 objects as of 18-Nov-2025
HD Live streaming from Space Station
objects crossing your sky now

KUIPER-00152

Track KUIPER-00152 now!
10-day predictions
KUIPER-00152 is classified as:


NORAD ID: 65772
Int'l Code: 2025-217L
Perigee: 456.3 km
Apogee: 460.3 km
Inclination: 51.9 °
Period: 93.6 minutes
Semi major axis: 6829 km
RCS: Unknown
Launch date: September 25, 2025
Source: United States (US)
Launch site: AIR FORCE EASTERN TEST RANGE (AFETR)
Your satellite tracking list
Your tracking list is empty




NASA's NSSDC Master Catalog

Two Line Element Set (TLE):
1 65772U 25217L   25321.80848529  .00040776  00000-0  10677-2 0  9998
2 65772  51.8715 184.6537 0002935 186.1208 173.9744 15.38306691  8213
Source of the keplerian elements: AFSPC